KC5JIM Weather Reports


Display with metric or nautical units.
time (UTC)temp
F
wind
direction
speed
MPH
gust
MPH
rain 1hr
in
rain 24hr
in
rain mn
in
humidity
%
barometer
mb
20260903062125 82 311 0.0 3.0 0.00 0.00 0.00 59 1009.6
20260903061621 82 60 0.0 2.0 0.00 0.00 0.00 59 1009.8
20260903061336 82 315 0.0 3.0 0.00 0.00 0.00 59 1009.6
20260903060613 82 57 2.0 4.0 0.00 0.00 0.00 58 1009.7
20260903060109 83 31 2.0 6.0 0.00 0.00 0.00 58 1009.5
20260903055825 83 353 3.0 4.0 0.00 0.00 0.00 57 1009.6
20260903055101 83 67 2.0 2.0 0.00 0.00 0.00 57 1009.7
20260903054556 83 80 3.0 6.0 0.00 0.00 0.00 56 1009.7
20260903054052 83 87 2.0 3.0 0.00 0.00 0.00 55 1010.0
20260903053548 83 37 2.0 4.0 0.00 0.00 0.00 55 1009.7
20260903053044 84 72 2.0 7.0 0.00 0.00 0.00 54 1009.8
20260903052540 84 91 5.0 8.0 0.00 0.00 0.00 53 1009.6
20260903052036 84 84 1.0 8.0 0.00 0.00 0.00 52 1009.7
20260903051532 85 53 4.0 8.0 0.00 0.00 0.00 50 1009.7
20260903051028 85 124 6.0 10.0 0.00 0.00 0.00 50 1009.9
20260903050524 85 192 3.0 4.0 0.00 0.00 0.00 50 1009.8
20260903050020 85 167 2.0 3.0 0.00 0.00 0.00 49 1009.7
20260903045516 85 98 0.0 2.0 0.00 0.00 0.00 49 1009.7
20260903045012 85 97 2.0 5.0 0.00 0.00 0.00 49 1009.6
20260903044509 85 58 1.0 4.0 0.00 0.00 0.00 49 1009.6
20260903044005 85 37 3.0 4.0 0.00 0.00 0.00 49 1009.7
20260903043501 85 44 3.0 3.0 0.00 0.00 0.00 49 1009.5
20260903042956 85 101 0.0 3.0 0.00 0.00 0.00 49 1009.5
20260903042453 85 30 2.0 5.0 0.00 0.00 0.00 49 1009.5
20260903041948 85 10 1.0 5.0 0.00 0.00 0.00 49 1009.4
20260903041445 85 80 4.0 6.0 0.00 0.00 0.00 49 1009.5
20260903040940 85 81 2.0 3.0 0.00 0.00 0.00 49 1009.6
20260903040436 85 53 3.0 6.0 0.00 0.00 0.00 49 1009.3
20260903035932 85 47 2.0 5.0 0.00 0.00 0.00 50 1009.5
20260903035428 85 48 2.0 5.0 0.00 0.00 0.00 49 1009.3
20260903034924 85 32 3.0 9.0 0.00 0.00 0.00 49 1009.4
20260903034421 85 26 3.0 7.0 0.00 0.00 0.00 49 1009.5
20260903033916 85 44 4.0 8.0 0.00 0.00 0.00 48 1009.5
20260903033636 85 31 2.0 5.0 0.00 0.00 0.00 48 1009.4
20260903032908 85 42 3.0 7.0 0.00 0.00 0.00 48 1009.5
20260903032404 85 356 0.0 4.0 0.00 0.00 0.00 47 1009.3
20260903031901 86 358 2.0 3.0 0.00 0.00 0.00 47 1009.2
20260903031356 86 339 0.0 4.0 0.00 0.00 0.00 46 1009.3
20260903030852 86 56 2.0 6.0 0.00 0.00 0.00 46 1009.2
20260903030348 86 346 4.0 4.0 0.00 0.00 0.00 47 1009.1
20260903030106 85 60 1.0 3.0 0.00 0.00 0.00 47 1009.1
20260903025341 86 15 2.0 5.0 0.00 0.00 0.00 47 1009.0
20260903024837 86 14 4.0 6.0 0.00 0.00 0.00 46 1009.0
20260903024333 86 353 2.0 5.0 0.00 0.00 0.00 46 1009.0
20260903023829 86 8 2.0 4.0 0.00 0.00 0.00 46 1008.8
20260903023325 86 356 2.0 4.0 0.00 0.00 0.00 46 1008.8
20260903022821 86 333 0.0 2.0 0.00 0.00 0.00 46 1008.8
20260903022317 86 62 0.0 2.0 0.00 0.00 0.00 46 1008.7
20260903021813 86 40 2.0 4.0 0.00 0.00 0.00 46 1008.7
20260903021309 86 44 0.0 3.0 0.00 0.00 0.00 46 1008.7
20260903020805 87 73 2.0 3.0 0.00 0.00 0.00 46 1009.1
20260903020522 87 77 2.0 3.0 0.00 0.00 0.00 46 1008.7
20260903015757 87 207 3.0 4.0 0.00 0.00 0.00 46 1008.9
20260903015513 87 139 2.0 5.0 0.00 0.00 0.00 47 1009.0
20260903015011 87 57 2.0 5.0 0.00 0.00 0.00 47 1008.7
20260903014245 87 75 3.0 6.0 0.00 0.00 0.00 47 1008.9
20260903013741 87 68 1.0 5.0 0.00 0.00 0.00 46 1008.8
20260903013237 88 121 3.0 6.0 0.00 0.00 0.00 46 1008.8
20260903012733 88 77 4.0 7.0 0.00 0.00 0.00 45 1008.7
20260903012229 88 85 5.0 13.0 0.00 0.00 0.00 45 1008.8
20260903011725 88 110 7.0 11.0 0.00 0.00 0.00 45 1008.8
20260903011221 88 86 3.0 11.0 0.00 0.00 0.00 45 1008.9
20260903010717 88 52 4.0 12.0 0.00 0.00 0.00 44 1008.7
20260903010213 89 69 4.0 10.0 0.00 0.00 0.00 44 1008.7
20260903005709 89 96 7.0 15.0 0.00 0.00 0.00 44 1008.7
20260903005205 89 84 10.0 12.0 0.00 0.00 0.00 43 1008.7
20260903004701 90 77 8.0 13.0 0.00 0.00 0.00 43 1008.6
20260903004157 90 98 8.0 15.0 0.00 0.00 0.00 41 1008.5
20260903003653 90 93 5.0 8.0 0.00 0.00 0.00 42 1008.6
20260903003149 90 68 5.0 8.0 0.00 0.00 0.00 41 1008.6
20260903002645 91 106 11.0 13.0 0.00 0.00 0.00 40 1008.6
20260903002141 90 118 3.0 9.0 0.00 0.00 0.00 41 1008.7
20260903001637 90 94 9.0 10.0 0.00 0.00 0.00 41 1008.8
20260903001133 90 143 4.0 11.0 0.00 0.00 0.00 42 1008.9
20260903000629 89 125 5.0 7.0 0.00 0.00 0.00 42 1009.0
20260903000125 89 91 4.0 8.0 0.00 0.00 0.00 42 1009.1
20260902235621 90 96 4.0 13.0 0.00 0.00 0.00 41 1008.8
20260902235117 90 84 10.0 14.0 0.00 0.00 0.00 41 1008.5
20260902234613 91 95 9.0 13.0 0.00 0.00 0.00 41 1008.7
20260902234109 90 120 4.0 11.0 0.00 0.00 0.00 41 1008.7
20260902233605 91 108 12.0 16.0 0.00 0.00 0.00 41 1008.9
20260902233100 90 31 7.0 13.0 0.00 0.00 0.00 42 1008.7
20260902232556 91 73 4.0 14.0 0.00 0.00 0.00 41 1008.7
20260902232053 90 95 4.0 9.0 0.00 0.00 0.00 41 1008.9
20260902231548 90 96 8.0 14.0 0.00 0.00 0.00 41 1009.0
20260902231045 91 107 6.0 9.0 0.00 0.00 0.00 41 1009.1
20260902230541 91 101 8.0 15.0 0.00 0.00 0.00 42 1009.1
20260902230301 90 95 5.0 11.0 0.00 0.00 0.00 43 1009.1
20260902225533 90 86 8.0 16.0 0.00 0.00 0.00 43 1009.3
20260902225029 90 28 8.0 15.0 0.00 0.00 0.00 43 1009.0
20260902224525 90 103 5.0 12.0 0.00 0.00 0.00 43 1009.3
20260902224020 89 106 10.0 13.0 0.00 0.00 0.00 43 1009.2
20260902223517 89 86 11.0 13.0 0.00 0.00 0.00 44 1009.2
20260902223233 89 80 14.0 16.0 0.00 0.00 0.00 43 1009.4
20260902222509 88 82 9.0 18.0 0.00 0.00 0.00 43 1009.5
20260902222005 89 77 11.0 12.0 0.00 0.00 0.00 43 1009.3
20260902221501 87 76 8.0 15.0 0.00 0.00 0.00 44 1009.6
20260902221449 87 101 4.0 11.0 0.00 0.00 0.00 46 1009.6
20260902220452 87 68 6.0 8.0 0.00 0.00 0.00 47 1009.6
20260902215949 88 97 6.0 13.0 0.00 0.00 0.00 47 1009.6
20260902215444 90 117 7.0 15.0 0.00 0.00 0.00 46 1009.7
20260902214940 90 120 2.0 10.0 0.00 0.00 0.00 41 1009.7
20260902214436 90 131 4.0 10.0 0.00 0.00 0.00 41 1009.7
20260902213932 90 125 2.0 8.0 0.00 0.00 0.00 40 1009.6
20260902213429 90 114 2.0 7.0 0.00 0.00 0.00 41 1009.6
20260902212925 90 143 3.0 11.0 0.00 0.00 0.00 41 1009.4
20260902212420 90 124 3.0 12.0 0.00 0.00 0.00 40 1009.6
20260902212138 90 154 6.0 14.0 0.00 0.00 0.00 40 1009.5
20260902211412 90 147 3.0 11.0 0.00 0.00 0.00 40 1009.7
20260902210908 90 121 9.0 14.0 0.00 0.00 0.00 40 1009.7
20260902210404 90 153 5.0 11.0 0.00 0.00 0.00 39 1009.6
20260902210120 91 141 14.0 17.0 0.00 0.00 0.00 39 1009.6
20260902205356 90 145 7.0 12.0 0.00 0.00 0.00 40 1009.4
20260902205116 89 188 3.0 8.0 0.00 0.00 0.00 40 1009.5
20260902204608 90 171 12.0 12.0 0.00 0.00 0.00 40 1009.7
20260902204106 90 193 5.0 14.0 0.00 0.00 0.00 40 1009.8
20260902203340 91 161 9.0 12.0 0.00 0.00 0.00 39 1009.8
20260902202836 90 163 2.0 13.0 0.00 0.00 0.00 40 1009.8
20260902202332 91 157 4.0 13.0 0.00 0.00 0.00 40 1009.4
20260902201828 91 196 5.0 8.0 0.00 0.00 0.00 39 1009.4
20260902201546 92 160 8.0 11.0 0.00 0.00 0.00 39 1009.5
20260902201044 92 102 4.0 10.0 0.00 0.00 0.00 39 1009.6
20260902200317 92 75 4.0 13.0 0.00 0.00 0.00 39 1009.7
20260902195813 92 287 0.0 8.0 0.00 0.00 0.00 39 1009.7
20260902195308 90 206 3.0 6.0 0.00 0.00 0.00 40 1010.2
20260902194804 91 110 11.0 19.0 0.00 0.00 0.00 40 1010.1
20260902194300 90 177 10.0 15.0 0.00 0.00 0.00 41 1010.6
20260902194016 91 144 6.0 12.0 0.00 0.00 0.00 40 1010.4
20260902193252 90 171 3.0 8.0 0.00 0.00 0.00 42 1010.6
20260902192748 90 82 4.0 11.0 0.00 0.00 0.00 42 1010.9
20260902192244 89 91 4.0 13.0 0.00 0.00 0.00 43 1010.7
20260902191740 90 242 5.0 13.0 0.00 0.00 0.00 44 1011.0
20260902191236 90 168 4.0 16.0 0.00 0.00 0.00 43 1011.1
20260902190732 89 190 3.0 11.0 0.00 0.00 0.00 43 1011.2
20260902190451 90 136 4.0 15.0 0.00 0.00 0.00 43 1011.1
20260902185725 90 177 5.0 12.0 0.00 0.00 0.00 43 1011.3
20260902185220 89 208 9.0 13.0 0.00 0.00 0.00 43 1011.2
20260902184716 89 170 4.0 13.0 0.00 0.00 0.00 44 1011.3
20260902184212 89 181 9.0 12.0 0.00 0.00 0.00 44 1011.2
20260902183708 89 130 6.0 11.0 0.00 0.00 0.00 44 1011.5
20260902183428 89 162 4.0 11.0 0.00 0.00 0.00 45 1011.7
20260902182921 88 183 4.0 10.0 0.00 0.00 0.00 46 1011.4
20260902182156 89 198 10.0 13.0 0.00 0.00 0.00 47 1011.7
20260902181652 88 164 6.0 9.0 0.00 0.00 0.00 47 1011.9
20260902181148 88 113 5.0 12.0 0.00 0.00 0.00 47 1011.9
20260902180644 88 98 4.0 8.0 0.00 0.00 0.00 47 1012.1
20260902180140 89 137 7.0 11.0 0.00 0.00 0.00 46 1012.0
20260902175636 87 253 2.0 7.0 0.00 0.00 0.00 47 1012.0
20260902175132 87 158 4.0 8.0 0.00 0.00 0.00 48 1012.1
20260902174628 86 119 1.0 3.0 0.00 0.00 0.00 48 1012.1
20260902174124 87 129 2.0 10.0 0.00 0.00 0.00 49 1012.1
20260902173620 87 137 5.0 9.0 0.00 0.00 0.00 48 1012.1
20260902173116 87 67 2.0 9.0 0.00 0.00 0.00 48 1011.8
20260902172612 88 81 6.0 11.0 0.00 0.00 0.00 48 1011.8
20260902172108 88 109 5.0 5.0 0.00 0.00 0.00 46 1011.9
20260902171604 87 265 2.0 4.0 0.00 0.00 0.00 48 1012.0
20260902171100 85 11 1.0 3.0 0.00 0.00 0.00 48 1012.1
20260902170556 87 78 4.0 7.0 0.00 0.00 0.00 49 1012.1
20260902165549 85 111 4.0 7.0 0.00 0.00 0.00 50 1012.5
20260902165045 85 125 2.0 3.0 0.00 0.00 0.00 49 1012.5
20260902164540 85 164 4.0 5.0 0.00 0.00 0.00 50 1012.2
20260902164036 86 85 6.0 7.0 0.00 0.00 0.00 50 1012.1
20260902163754 85 105 2.0 4.0 0.00 0.00 0.00 50 1012.2
20260902163029 86 316 2.0 4.0 0.00 0.00 0.00 49 1012.2
20260902162524 85 82 2.0 4.0 0.00 0.00 0.00 50 1012.3
20260902162020 84 111 2.0 4.0 0.00 0.00 0.00 52 1012.4
20260902161516 83 198 3.0 4.0 0.00 0.00 0.00 52 1012.2
20260902161012 85 92 5.0 9.0 0.00 0.00 0.00 52 1012.3
20260902160509 85 88 2.0 6.0 0.00 0.00 0.00 50 1012.0
20260902160224 86 338 5.0 5.0 0.00 0.00 0.00 49 1011.8
20260902155500 85 124 0.0 2.0 0.00 0.00 0.00 50 1012.0
20260902154956 83 359 1.0 3.0 0.00 0.00 0.00 52 1012.2
20260902154452 84 260 1.0 3.0 0.00 0.00 0.00 51 1011.9
20260902153948 83 139 2.0 4.0 0.00 0.00 0.00 55 1012.1
20260902153444 83 126 2.0 3.0 0.00 0.00 0.00 55 1012.1
20260902152940 83 287 0.0 2.0 0.00 0.00 0.00 55 1012.3
20260902152436 83 201 2.0 4.0 0.00 0.00 0.00 57 1012.1
20260902151932 82 153 2.0 3.0 0.00 0.00 0.00 58 1012.2
20260902151428 82 242 2.0 4.0 0.00 0.00 0.00 60 1012.0
20260902151418 83 206 3.0 5.0 0.00 0.00 0.00 59 1012.2
20260902150420 82 252 4.0 5.0 0.00 0.00 0.00 60 1012.1
20260902145916 82 255 4.0 6.0 0.00 0.00 0.00 61 1012.3
20260902145412 82 200 4.0 6.0 0.00 0.00 0.00 62 1011.8
20260902144908 82 259 2.0 4.0 0.00 0.00 0.00 60 1012.0
20260902144404 82 214 3.0 5.0 0.00 0.00 0.00 62 1012.0
20260902143900 82 274 2.0 4.0 0.00 0.00 0.00 64 1012.0
20260902143356 82 301 0.0 4.0 0.00 0.00 0.00 61 1012.2
20260902142852 80 89 2.0 4.0 0.00 0.00 0.00 63 1012.1
20260902142609 80 226 1.0 3.0 0.00 0.00 0.00 67 1012.2
20260902142107 79 202 2.0 3.0 0.00 0.00 0.00 70 1012.1
20260902141340 79 191 2.0 4.0 0.00 0.00 0.00 70 1012.3
20260902140836 79 189 2.0 3.0 0.00 0.00 0.00 70 1012.1
20260902140333 79 187 3.0 3.0 0.00 0.00 0.00 69 1011.9
20260902135829 78 257 0.0 2.0 0.00 0.00 0.00 70 1012.1
20260902135324 78 180 0.0 2.0 0.00 0.00 0.00 70 1011.8
20260902134820 78 315 1.0 2.0 0.00 0.00 0.00 71 1011.8
20260902134316 78 329 0.0 2.0 0.00 0.00 0.00 71 1011.7
20260902133813 77 264 2.0 2.0 0.00 0.00 0.00 71 1011.9
20260902133309 76 324 0.0 2.0 0.00 0.00 0.00 73 1011.8
20260902132804 76 41 0.0 2.0 0.00 0.00 0.00 75 1011.8
20260902132300 75 250 1.0 2.0 0.00 0.00 0.00 75 1011.6
20260902131756 75 283 0.0 2.0 0.00 0.00 0.00 75 1011.7
20260902131514 75 0 2.0 4.0 0.00 0.00 0.00 75 1011.5
20260902130748 74 39 1.0 2.0 0.00 0.00 0.00 78 1011.8
20260902130734 74 6 0.0 2.0 0.00 0.00 0.00 78 1011.7
20260902125740 74 326 1.0 3.0 0.00 0.00 0.00 78 1011.7
20260902125236 74 190 0.0 2.0 0.00 0.00 0.00 78 1011.6
20260902124732 74 82 2.0 2.0 0.00 0.00 0.00 78 1011.8
20260902124229 73 357 3.0 4.0 0.00 0.00 0.00 79 1011.6
20260902123725 73 25 2.0 4.0 0.00 0.00 0.00 79 1011.5
20260902123220 73 354 2.0 5.0 0.00 0.00 0.00 80 1011.5
20260902122716 72 358 2.0 3.0 0.00 0.00 0.00 80 1011.5
20260902122433 72 86 1.0 2.0 0.00 0.00 0.00 80 1011.5
20260902121931 72 328 1.0 2.0 0.00 0.00 0.00 81 1011.7
20260902121429 72 47 2.0 4.0 0.00 0.00 0.00 81 1011.4
20260902120700 72 238 0.0 3.0 0.00 0.00 0.00 81 1011.4
20260902120156 72 283 0.0 3.0 0.00 0.00 0.00 81 1011.6
20260902115652 72 315 0.0 2.0 0.00 0.00 0.00 80 1011.5
20260902115410 72 202 0.0 3.0 0.00 0.00 0.00 80 1011.4
20260902114644 72 261 1.0 3.0 0.00 0.00 0.00 80 1011.4
20260902114140 73 308 0.0 5.0 0.00 0.00 0.00 80 1011.4
20260902113636 72 334 0.0 3.0 0.00 0.00 0.00 80 1011.5
20260902113132 72 130 1.0 2.0 0.00 0.00 0.00 80 1011.4
20260902112628 72 343 0.0 2.0 0.00 0.00 0.00 80 1011.6
20260902112124 73 336 1.0 3.0 0.00 0.00 0.00 79 1011.2
20260902112110 73 291 0.0 2.0 0.00 0.00 0.00 79 1011.5
20260902111338 73 322 0.0 2.0 0.00 0.00 0.00 78 1011.3
20260902110612 73 297 0.0 2.0 0.00 0.00 0.00 78 1011.3
20260902110108 73 330 1.0 3.0 0.00 0.00 0.00 78 1011.4
20260902105604 73 276 2.0 3.0 0.00 0.00 0.00 78 1011.5
20260902105100 74 244 0.0 1.0 0.00 0.00 0.00 77 1011.2
20260902104556 74 308 0.0 2.0 0.00 0.00 0.00 76 1011.4
20260902104052 74 307 1.0 2.0 0.00 0.00 0.00 76 1011.5
20260902103548 75 267 2.0 3.0 0.00 0.00 0.00 74 1011.1
20260902103033 75 348 2.0 3.0 0.00 0.00 0.00 73 1011.4
20260902102524 75 358 4.0 4.0 0.00 0.00 0.00 73 1011.4
20260902102020 75 317 1.0 2.0 0.00 0.00 0.00 74 1011.3
20260902101516 75 353 3.0 4.0 0.00 0.00 0.00 74 1011.4
20260902101012 75 7 3.0 4.0 0.00 0.00 0.00 74 1011.4
20260902100508 75 358 3.0 3.0 0.00 0.00 0.00 74 1011.4
20260902100004 75 353 2.0 3.0 0.00 0.00 0.00 74 1011.5
20260902095500 75 333 0.0 3.0 0.00 0.00 0.00 74 1011.5
20260902095219 74 326 0.0 2.0 0.00 0.00 0.00 75 1011.3
20260902094712 74 16 1.0 1.0 0.00 0.00 0.00 76 1011.8
20260902093948 74 328 1.0 3.0 0.00 0.00 0.00 76 1011.4
20260902093444 74 296 0.0 2.0 0.00 0.00 0.00 76 1011.5
20260902093201 75 276 1.0 2.0 0.00 0.00 0.00 75 1011.4
20260902092436 75 257 0.0 1.0 0.00 0.00 0.00 74 1011.4
20260902091932 75 214 0.0 2.0 0.00 0.00 0.00 74 1011.4
20260902091428 75 207 2.0 2.0 0.00 0.00 0.00 74 1011.3
20260902091147 76 203 3.0 3.0 0.00 0.00 0.00 72 1011.2
20260902090420 76 164 0.0 2.0 0.00 0.00 0.00 71 1011.2
20260902085917 77 284 0.0 1.0 0.00 0.00 0.00 69 1010.9
20260902085412 77 294 1.0 4.0 0.00 0.00 0.00 68 1011.2
20260902085128 77 355 1.0 3.0 0.00 0.00 0.00 69 1011.0
20260902084404 76 342 1.0 2.0 0.00 0.00 0.00 70 1011.0
20260902083900 76 205 0.0 0.0 0.00 0.00 0.00 71 1011.2
20260902083356 77 212 0.0 2.0 0.00 0.00 0.00 70 1011.3
20260902082852 79 245 1.0 2.0 0.00 0.00 0.00 65 1011.0
20260902082348 79 19 0.0 2.0 0.00 0.00 0.00 63 1010.8
20260902082106 78 59 1.0 2.0 0.00 0.00 0.00 64 1010.7
20260902081340 79 353 1.0 2.0 0.00 0.00 0.00 64 1010.8
20260902080837 78 356 1.0 2.0 0.00 0.00 0.00 64 1010.9
20260902080332 78 354 0.0 2.0 0.00 0.00 0.00 65 1011.1
20260902075828 78 14 1.0 2.0 0.00 0.00 0.00 65 1010.9
20260902075324 77 5 1.0 2.0 0.00 0.00 0.00 67 1011.3
20260902075043 77 2 2.0 2.0 0.00 0.00 0.00 68 1011.2
20260902074316 77 255 0.0 2.0 0.00 0.00 0.00 68 1011.1
20260902073812 77 89 0.0 1.0 0.00 0.00 0.00 68 1011.0
20260902073532 77 337 1.0 2.0 0.00 0.00 0.00 69 1011.1
20260902072804 76 328 1.0 2.0 0.00 0.00 0.00 69 1011.2
20260902072300 76 326 0.0 2.0 0.00 0.00 0.00 70 1011.1
20260902071756 77 321 1.0 2.0 0.00 0.00 0.00 70 1011.0
20260902071513 77 62 0.0 1.0 0.00 0.00 0.00 69 1011.0
20260902070748 77 220 1.0 2.0 0.00 0.00 0.00 68 1010.9
20260902070244 77 283 1.0 2.0 0.00 0.00 0.00 67 1011.0
20260902065740 78 230 0.0 3.0 0.00 0.00 0.00 66 1010.9
20260902065236 78 241 0.0 2.0 0.00 0.00 0.00 67 1010.9
20260902064732 78 230 0.0 1.0 0.00 0.00 0.00 64 1010.7
20260902064229 79 309 0.0 1.0 0.00 0.00 0.00 65 1010.8
20260902063948 78 301 1.0 1.0 0.00 0.00 0.00 66 1010.8
20260902063221 78 255 0.0 2.0 0.00 0.00 0.00 66 1011.0
20260902062716 78 269 0.0 2.0 0.00 0.00 0.00 66 1010.9